Location: Antoign�
(47.0844°N, 0.1131°W)
Time: 00:39:56
(UTC+00:00)

SeaSat 1 - Pass Details

Date: 03 March 2021
Orbit: 744 x 747 km, 108.0° (Epoch: 14 April)

Event Time Altitude Azimuth Distance (km) Brightness Sun altitude
Rises 19:33:58 0° 26° (NNE) 3,201 5.6 -18.6°
Reaches altitude 10° 19:36:15 10° 24° (NNE) 2,274 4.8 -19.0°
Maximum altitude 19:41:10 70° 302° (WNW) 797 2.7 -19.8°
Drops below altitude 10° 19:46:04 10° 219° (SW) 2,261 5.2 -20.6°
Sets 19:48:19 0° 217° (SW) 3,181 6.0 -21.0°
